Retour au catalogue

COSMOS 789 DEB

ActifPO
NORAD 36299·DEBRIS·🇷🇺 Russia

Lancé Jan 20, 1976 depuis Plesetsk Cosmodrome

Loading…

Prochains Passages (prochaines 24 heures)

TLE

FraisSource: Space-Track

Époque: Sep 13, 2026, 09:08 UTC

1 36299U 76005C   26256.38110022  .00000560  00000-0  52073-3 0  9996
2 36299  82.9698 117.0221 0027645 245.0030 289.6293 13.80360713864082

Suivez COSMOS 789 DEB en temps réel avec AllMySat

Download on the App Store